Погода в Бугульме

Погода в Бугульме : погода сейчас, прогноз погоды и архив. Всё, что Вы хотите узнать о погоде в Бугульме!

Хотите узнать прогноз погоды в Бугульме? Тогда Вам сюда: Погода в Бугульме

Поиск расширенной информации на нашем сайте:

Другие новости

Новости СМИ2

Главная страница сайта

Новости сайта

02.10.2013

Напоминаем, что на нашем новом сайте вы можете получить высокодетализированные прогнозы погоды по пунктам России, СНГ и мира (включающие важные для авиации метеовеличины, такие как направление и скорость ветра, видимость, явления погоды, количество и форма облачности, нижняя и верхняя граница облачности), а также ознакомиться с разнообразными материалами по авиационной метеорологии и подборкой полезных ссылок на эту тему.

Сайт Метеоцентр.Азия посвящён разработке технологий оптимизации авиаметеорологического обслуживания, включая проектирование и перспективное создание нескольких автоматизированных авиаметеорологических систем:
- система выпуска высокодетальных прогностических карт явлений погоды для нижнего воздушного пространства по России и ближнему зарубежью;
- система верификации прогнозов TAF (выпускаемых синоптиками официальных АМСГ РФ и ближнего зарубежья) и AUTOTAF (выпускаемых сайтом Метеоцентр.Азия) - выявление ошибок, онлайн-сопоставление с фактической погодой METAR, автоматическое внесение коррективов в прогнозы при резком отклонении фактической погоды от прогноза, подсчёт оправдываемости прогнозов по элементам и в целом;
- система обработки, анализа и отображения авиаметеорологической информации для применения провайдерами метеорологической информации.

Рекомендуем: Как сделать html ссылку.

Погода в Бугульме - сегодня

Время (UTC), дата Ветер
(°,м/с) 
Видим.   Явления Облачность Т
(°С)
Тd
(°С)
f(%) Тe
(°С)
Pmin
(гПа)
dP
(гПа)
Po
(мм)
O2
(г/м3)
Тmin Tmax R s Состояние
почвы
21 25.05.17 210 (ЮЗ) 10 км    6/0 средняя, верхняя 
[Ac trans|Ci fib]
+15 +7.8 62 +15  1015.9  -0.3  735  279           
00 26.05.17 230 (ЮЗ) 20000 м    4/0 средняя 
[Ac trans]
+14.3 +6.8 61 +14  1015.8  -0.2  735  280           
03 26.05.17 200 (Ю) 20000 м    4/0 средняя, верхняя 
[Ac trans|Ci fib]
+17.8 +8.3 54 +18  1015.4  735  277  +12        сухая 
06 26.05.17 200 (Ю) 8-11{11}  20000 м    3/3 1000 м 
[Cu hum]
+21.9 +7.1 38 +22  1014.8  0.1  735  273           
09 26.05.17 210 (ЮЗ) 6-12{12}  20000 м    6/4 1000 м верхняя 
[Cu hum|Ci fib]
+23.5 +4 28 +24  1013.9  -0.7  734  272           
12 26.05.17 210 (ЮЗ) 6-12{12}  20000 м    10/3 1000 м верхняя 
[Cu hum|Ci fib]
+23.2 +0.9 23 +23  1012.2  -1.7  733  272           
18 26.05.17 220 (ЮЗ) 6{10}  10 км    10/3 1000 м кучево-дожд., верхняя 
[Cb calv|Ci fib]
+16.2 +5.4 49 +16  1011.6  -0.2  732  278           
21 26.05.17 180 (Ю) 10 км    6/0 средняя, верхняя 
[Ac trans|Ci fib]
+14 +6 58 +15  1011.3  -0.5  732  279           
03 27.05.17 210 (ЮЗ) 20000 м    10/6 1200 м кучево-дожд., средняя, верхняя 
[Cb calv|Ac trans|Ci fib]
+14.7 +7.6 62 +15  1008.9  -0.9  730  278  +12.5        сухая 
06 27.05.17 200 (Ю) 20000 м    10/6 1200 м кучево-дожд., средняя, верхняя 
[Cb calv|Ac trans|Ci fib]
+15.7 +9.3 66 +17  1007.7  -1  729  276           
09 27.05.17 220 (ЮЗ) 20000 м    10/6 1000 м средняя, верхняя 
[Cu hum|Ac trans|Ci fib]
+20.5 +8 44 +21  1005.7  -1.5  728  272           
12 27.05.17 230 (ЮЗ) 5{10}  20000 м    8/6 1200 м верхняя 
[Cu hum|Ci fib]
+21.6 +8.2 42 +22  1003.1  -2.3  726  270           
15 27.05.17 300 (СЗ) 5-12{12}  20000 м  гроза, ливневой дождь  10/8 630 м кучево-дожд., средняя 
[Cb cap|Ac und]
+13.3 +10.3 82 +15  1004.4  0.3  727  277    +22  0.8     
18 27.05.17 210 (ЮЗ) 3{12}  10 км  {гроза, ливн. осадки}  6/4 1000 м кучево-дожд., средняя, верхняя 
[Cb calv|Ac trans|Ci fib]
+11.5 +10.7 95 +14  1003.5  -1  726  279           
21 27.05.17 300 (СЗ) 4000 м  слаб. ливневой дождь  10/8 120 м кучево-дожд., средняя 
[Cb calv|Ac und]
+12.1 +11.1 94 +14  1003.1  -0.3  726  278           
00 28.05.17 330 (СЗ) 5{14}  20000 м  в посл. час ливневой дождь  10/8 120 м кучево-дожд., средняя 
[Cb calv|Ac und]
+6.7 +5.7 93 +5  1006.4  2.4  727  285           
03 28.05.17 320 (СЗ) 6-10{10}  20000 м    6/6 420 м кучево-дожд. 
[Cb calv]
+4.9 +1.8 80 +2  1008.6  1.9  729  288  +4.8      влажная 
06 28.05.17 310 (СЗ) 5{10}  20000 м    6/6 930 м 
[Sc diur, vesp]
+6.6 -0.2 62 +5  1009.3  0.9  730  287           
09 28.05.17 330 (СЗ) 4{10}  20000 м    8/6 1080 м верхняя 
[Cu hum|Ci fib]
+8.9 -1.5 48 +8  1009.3  0.3  730  285           
12 28.05.17 340 (С) 20000 м    10/6 1200 м верхняя 
[Sc|Ci fib]
+8.5 -2.9 44 +7  1009.6  0.2  730  285           
15 28.05.17 010 (С) 20000 м    10/6 1500 м верхняя 
[Sc|Ci fib]
+6 -2.4 55 +4  1010.2  0.3  730  288    +9.7       
18 28.05.17 010 (С) 10 км    10/4 1500 м средняя, верхняя 
[Sc|Ac trans|Ci fib]
+3.1 -3.1 64 +2  1011.4  0.8  731  291           
21 28.05.17 360 (С) 10 км    10/0 средняя 
[Ac und]
+1.8 -3.3 69 1012.2  0.5  731  293           
00 29.05.17 320 (СЗ) 20000 м    8/0 средняя, верхняя 
[Ac trans|Ci fib]
-0.2 -3.8 77 -2  1013.5  732  296           
03 29.05.17 360 (С) 20000 м    3/0 средняя 
[Ac trans]
+3.6 -3.8 58 +1  1013.4  0.3  732  292  -0.5        сухая 
Время (UTC), дата Ветер
(°,м/с) 
Видим.   Явления Облачность Т
(°С)
Тd
(°С)
f(%) Тe
(°С)
Pmin
(гПа)
dP
(гПа)
Po
(мм)
O2
(г/м3)
Тmin Tmax R s Состояние
почвы

Для получения пояснительной информации подведите курсор к названию столбца.

ПОГОДА в Бугульме - архив

Всё, что Вы хотите узнать о погоде в Бугульме - удобно и подробно!

Выберите нужную дату (начиная с 1 января 2015* года) и нажмите кнопку "Найти".
Будут отображены архивные сводки погоды по пункту Бугульма, начиная с указанной даты.


Отображать данные в формате CSV (для использования в таблицах Excel)


Внимание! Наш архив погоды предназначен исключительно для личного некоммерческого использования в познавательных целях. Если Вам необходимы официальные справки о состоянии погоды (для производственных, юридических, коммерческих и т.п. целей), обращайтесь в органы Росгидромета.

*Примечание: данная дата относится к архиву по метеостанциям СССР (Россия, СНГ, Балтия).
Архив по метеостанциям Зарубежной Европы и Азии (кроме Китая) хранится 10 дней, по другим регионам земного шара (Китай, Африка, Америка, Австралия, Океания) - 1 день.

Бугульма - район местоположения метеостанции


Название, широта, долгота, высота метеостанции:
Бугульма 54.6°ш. 52.8°д. 304 м над ур. моря [Российская Федерация]

Дополнительная информация

В oтличие oт бoльшинства пoгoдных сайтoв мы публикуем пoдрoбную метеoинфoрмацию в детальнoм прoфессиoнальнoм фoрмате.

Характеристики температуры и влажнoсти вoздуха измеряются на высoте 2 м в тени вдали oт зданий и деревьев.
Скoрoсть ветра измеряется на высoте 10 м (на урoвне рoста челoвека скoрoсть ветра ниже в 1.5-2 раза). Если метеoстанция нахoдится в гoрoде или в лесу, тo скoрoсть ветра занижена на 2-4 м/с пo сравнению с oткрытым местoм. Скoрoсть ветра над акватoриями крупных рек и oзёр, а также на вершинах хoлмoв на 2-5 м/с выше, чем в oбычных услoвиях.
Атмoсфернoе давление в разных тoчках местнoсти мoжет значительнo oтличаться oт давления на метеoстанции, в зависимoсти oт услoвий рельефа (при пoдъёме на 10 м давление пoнижается примернo на 1 мм рт.ст.).